Lexington, KY

6:20 AM EDT on May 27, 2018 (GMT -0400)
Blue Grass

Weather History for KLEX - September, 2013

Change the Weather History Date:

Friday, September 20, 2013

  Actual Average Record
Temperature  
Mean Temperature 77 °F 66 °F  
Max Temperature 86 °F 77 °F 96 °F (1940)
Min Temperature 67 °F 56 °F 40 °F (1896)
Degree Days  
Heating Degree Days 0 2  
Month to date heating degree days 8 16  
Since 1 July heating degree days 11 18  
Cooling Degree Days 12 4  
Month to date cooling degree days 144 118  
Year to date cooling degree days 1182 1135  
Growing Degree Days 26 (Base 50)    
Moisture  
Dew Point 65 °F    
Average Humidity 71    
Maximum Humidity 93    
Minimum Humidity 48    
Precipitation  
Precipitation 0.03 in 0.09 in 3.08 in (1954)
Month to date precipitation 0.21 1.93  
Year to date precipitation 43.85 33.60  
Snow  
Snow 0.00 in 0.00 in - ()
Month to date snowfall 0.0 0.0  
Since 1 July snowfall 0.0 0.0  
Since 1 September snowfall 0.0 0.0  
Snow Depth 0.00 in    
Sea Level Pressure  
Sea Level Pressure 29.93 in    
Wind  
Wind Speed 9 mph (South)    
Max Wind Speed 18 mph    
Max Gust Speed 23 mph    
Visibility 10 miles    
Events Rain    
T = Trace of Precipitation, MM = Missing Value Source: NWS Daily Summary

Daily Weather History Graph

Daily Weather History Graph

Search for Another Location

Airport or City:

Astronomy

Sep. 20, 2013 Rise Set
Actual Time 7:24 AM EDT 7:38 PM EDT
Civil Twilight 6:58 AM EDT 8:04 PM EDT
Nautical Twilight 6:27 AM EDT 8:35 PM EDT
Astronomical Twilight 5:56 AM EDT 9:06 PM EDT
Moon 8:13 PM EDT (9/20) 8:36 AM EDT (9/20)
Length of Visible Light 13h 06m
Length of Day
12h 13m
Full, 98% of the Moon is Illuminated
Sep 20
Full
Sep 26
Last Quarter
Oct 4
New
Oct 11
First Quarter
Oct 18
Full

Hourly Weather History & Observations

Time (EDT) Temp. Heat Index Dew Point Humidity Pressure Visibility Wind Dir Wind Speed Gust Speed Precip Events Conditions
12:54 AM 71.1 °F - 66.0 °F 84% 30.02 in 10.0 mi SSW 8.1 mph - N/A   Clear
1:54 AM 70.0 °F - 66.0 °F 87% 30.01 in 10.0 mi SSE 4.6 mph - N/A   Clear
2:54 AM 69.1 °F - 66.0 °F 90% 30.02 in 9.0 mi SE 5.8 mph - N/A   Clear
3:54 AM 69.1 °F - 66.0 °F 90% 30.01 in 9.0 mi South 8.1 mph - N/A   Clear
4:54 AM 69.1 °F - 64.9 °F 87% 30.00 in 10.0 mi South 8.1 mph - N/A   Clear
5:54 AM 68.0 °F - 64.9 °F 90% 29.99 in 10.0 mi South 6.9 mph - N/A   Clear
6:54 AM 66.9 °F - 64.0 °F 90% 29.99 in 8.0 mi SSE 6.9 mph - N/A   Clear
7:54 AM 68.0 °F - 64.9 °F 90% 30.00 in 7.0 mi SSE 8.1 mph - N/A   Clear
8:54 AM 71.1 °F - 66.0 °F 84% 29.99 in 9.0 mi South 8.1 mph - N/A   Clear
9:54 AM 73.9 °F - 66.0 °F 76% 30.00 in 10.0 mi SSW 10.4 mph - N/A   Partly Cloudy
10:54 AM 79.0 °F - 66.0 °F 64% 29.99 in 10.0 mi SSW 13.8 mph - N/A   Clear
11:54 AM 82.0 °F 83.8 °F 64.9 °F 56% 29.97 in 10.0 mi SW 12.7 mph - N/A   Clear
12:54 PM 82.9 °F 84.6 °F 64.9 °F 54% 29.96 in 10.0 mi SW 16.1 mph - N/A   Clear
1:54 PM 84.9 °F 86.6 °F 64.9 °F 51% 29.93 in 10.0 mi SW 11.5 mph - N/A   Clear
2:54 PM 84.0 °F 85.8 °F 64.9 °F 53% 29.90 in 10.0 mi SW 9.2 mph - N/A   Partly Cloudy
3:54 PM 86.0 °F 87.6 °F 64.9 °F 49% 29.87 in 10.0 mi SSW 13.8 mph - N/A   Partly Cloudy
4:54 PM 84.9 °F 86.1 °F 64.0 °F 49% 29.85 in 10.0 mi SSW 15.0 mph 21.9 mph N/A   Partly Cloudy
5:54 PM 82.0 °F 84.1 °F 66.0 °F 58% 29.85 in 10.0 mi South 11.5 mph - N/A   Clear
6:54 PM 80.1 °F 82.1 °F 66.0 °F 62% 29.84 in 10.0 mi South 9.2 mph - N/A   Clear
7:54 PM 75.9 °F - 64.9 °F 69% 29.85 in 10.0 mi South 5.8 mph - N/A   Clear
8:54 PM 75.9 °F - 64.9 °F 69% 29.83 in 10.0 mi South 9.2 mph - N/A   Clear
9:54 PM 75.0 °F - 64.9 °F 71% 29.83 in 10.0 mi South 6.9 mph - N/A   Scattered Clouds
10:54 PM 73.9 °F - 66.0 °F 76% 29.82 in 10.0 mi South 8.1 mph - 0.00 in Rain Light Rain
11:54 PM 72.0 °F - 66.9 °F 84% 29.82 in 10.0 mi Calm Calm - 0.00 in Rain Light Rain